Regional Weather Roundup
Issued by NWS Northern Indiana

Home | Current Version | Previous Version | Text Only | Print | Product List | Glossary Off
Versions: 1 2 3 4 5 6 7 8 9 10 11 12 13 14 15 16 17 18 19 20 21 22 23 24 25 26 27 28 29 30 31 32 33 34 35 36 37 38 39 40 41 42 43 44 45 46 47 48 49 50

999
ASUS43 KIWX 261010
RWRIWX

KIWX WEATHER ROUNDUP
NATIONAL WEATHER SERVICE NORTHERN INDIANA
600 AM EDT FRI MAY 26 2017

NOTE: "FAIR" INDICATES FEW OR NO CLOUDS BELOW 12,000 FEET WITH NO
SIGNIFICANT WEATHER AND/OR OBSTRUCTIONS TO VISIBILITY.

* THESE STATIONS ARE NOT UNDER NWS QUALITY CONTROL. THEY ALSO MAY NOT
  REPORT WEATHER SUCH AS PRECIPITATION OR FOG.

INZ001>027-261100-
NORTHERN INDIANA

CITY           SKY/WX    TMP DP  RH WIND       PRES   REMARKS
VALPARAISO     CLEAR     51  49  92 CALM      29.84R FOG
MICHIGAN CITY* PTCLDY    45  45 100 CALM      29.85R FOG
LAPORTE*       CLEAR     51  50  95 NW5       29.84R
KNOX*          CLEAR     46  46 100 W3        29.83R
SOUTH BEND     CLEAR     48  47  96 CALM      29.84R
GOSHEN         CLOUDY    52  49  89 W8        29.82R FOG
MONTICELLO*    CLOUDY    50  48  95 CALM      29.85R FOG
LOGANSPORT*    CLOUDY    50  50 100 W3        29.86R FOG
ROCHESTER*     CLEAR     52  52 100 W3        29.85R FOG
WARSAW*        CLOUDY    50  50 100 NW6       29.83R FOG
FORT WAYNE     CLOUDY    53  50  89 W8        29.82R FOG
HUNTINGTON*    CLEAR     51  49  96 W5        29.83R
PERU/GRISSOM   CLOUDY    50  50 100 W7        29.84R
MARION*        PTCLDY    52  50  93 W6        29.85R FOG

$$
INZ028>050-261100-
CENTRAL INDIANA

CITY           SKY/WX    TMP DP  RH WIND       PRES   REMARKS
LAFAYETTE      FOG       49  49 100 CALM      29.85S VSB 3/4
KOKOMO*        CLOUDY    53  51  93 W6        29.86R
MUNCIE*        CLEAR     55  52  89 W6        29.84R
INDIANAPOLIS   CLOUDY    52  51  97 CALM      29.86R FOG

$$
MIZ043>046-050>051-056>058-064>065-071>073-077>080-261100-
SOUTHWEST LOWER MICHIGAN

CITY           SKY/WX    TMP DP  RH WIND       PRES   REMARKS
BATTLE CREEK   CLOUDY    52  52 100 NW7       29.81R FOG
BENTON HARBOR  CLOUDY    51  49  92 W5        29.83R
COLDWATER*     FOG       52  52 100 W7        29.80R VSB 1
HILLSDALE*     CLOUDY    52  50  93 NW10      29.78R FOG
HOLLAND        FOG       49  47  93 W3        29.82R VSB 1
GRAND RAPIDS   PTCLDY    52  52 100 W7        29.80R
KALAMAZOO      FOG       51  49  92 W5        29.82R VSB 1/2
STURGIS*       CLOUDY    51  51  99 NW6       29.81R FOG
THREE RIVERS*  CLOUDY    51  51  98 NW10      29.83R FOG

$$
OHZ001>008-015>018-024>025-261100-
NORTHWEST OHIO

CITY           SKY/WX    TMP DP  RH WIND       PRES   REMARKS
WAUSEON*       CLOUDY    54  54 100 W8        29.78R
DEFIANCE       CLOUDY    52  51  97 W8        29.80R
FINDLAY        MOCLDY    54  51  90 W8        29.77R
TOLEDO EXPRESS MOCLDY    54  53  97 W12       29.77R
TOLEDO METCALF CLOUDY    58  56  93 W8        29.76R
LIMA           CLOUDY    54  53  97 W14       29.80R

$$
AND FOR LAKE MICHIGAN COASTAL AND OPEN LAKE BUOY OBSERVATIONS

STATION/POSITION TEMP    WIND        PRES    VSBY  WAVE
                 AIR SEA DIR/SP/G                  HT/PER
                 (F)     (DEG/KT/KT) (MB)    (MI)  (FT/S)
CALUMET HARBOR    54     220/  1/  3 1009.8R
MICHIGAN CITY     54        CALM       N/A
BURNS HARBOR      53     180/  3/  4 1010.8R
SOUTH LAKE BUOY   47 45  340/  8/  8 1009.7          2/ 5
4 MI NW BRIDGMAN  51 54  280/  8/ 10 1010.9          3/ 5
MICHIGAN CITY     52 51   70/  2/  2   N/A           2/ 5

$$
&&




USA.gov is the U.S. government's official web portal to all federal, state and local government web resources and services.